Location: Unspecified
(0.0000°N, 0.0000°E)
Time: 16:34:43
(UTC+00:00)

Envisat - Pass Details

Date: 05 January 2018
Orbit: 764 x 766 km, 98.2° (Epoch: 20 July)

Event Time Altitude Azimuth Distance (km) Brightness Sun altitude
Rises 19:23:23 0° 148° (SSE) 3,227 6.2 -17.9°
Reaches altitude 10° 19:25:57 10° 137° (SE) 2,299 5.3 -18.5°
Enters shadow 19:28:26 23° 113° (ESE) 1,586 4.3 -19.1°
